TIME,DELAY(SENSOR),PRES,T(CTD),SAL,OXYGEN,RAWTEMP,T(OPTODE),TCPHASE,FLUOR,BETA(BETA700),BETA(BETA412),BETA(BETA440),CDOM,C(CSC),ED(ED412.40),ED(ED444.00),ED(ED489.70),ED(ED554.30),LU(LU411.80),LU(LU443.40),LU(LU489.60),LU(LU554.10),COMP,TILTX,TILTX(TILTY),CHECK
1360359277,5809,495.2600097656250000,6.6410999298095700,34.1086997985839840,83.9865875244140600,598.8751831054688000,6.6205978393554690,48.4299392700195300,52,103,88,79,78,14962,2147750299,2147425380,2148003364,2147874953,2147625773,2147073362,2148241536,2147199661,1222,4,13,55553
1360359409,5809,484.7900085449219000,6.7335000038146970,34.1049003601074200,89.0313873291015600,595.9478759765625000,6.7150878906250000,47.8178215026855500,52,101,86,81,79,14961,2147743917,2147427117,2148005549,2147876690,2147627940,2147076480,2148240118,2147203136,597,4,13,57891
1360359552,5809,474.0799865722656000,6.8253002166748050,34.1012001037597660,92.6036987304687500,593.0985717773438000,6.8069801330566410,47.3809089660644500,51,103,86,80,79,14961,2147745837,2147426505,2148007643,2147870875,2147628260,2147074678,2148241938,2147197238,3339,4,13,1801
1360359688,5807,462.1900024414062500,6.9944000244140625,34.0976982116699200,97.6730728149414000,587.3048095703125000,6.9936070442199710,46.7417411804199200,51,103,85,80,79,14962,2147744996,2147424192,2148004214,2147871040,2147626587,2147075867,2148241636,2147200310,95,4,13,50269
1360359798,5810,451.3900146484375000,7.1479997634887695,34.0926017761230500,103.7422027587890600,582.8566284179688000,7.1366791725158690,46.0371284484863300,51,103,90,79,78,14962,2147748096,2147424420,2148007579,2147872923,2147625984,2147075254,2148238948,2147200850,3492,4,13,21121
1360359911,5805,440.2999877929687500,7.2802000045776370,34.0923995971679700,109.8481979370117200,578.9677734375000000,7.2616119384765625,45.3526802062988300,51,103,86,79,78,14962,2147744137,2147426130,2148004745,2147874797,2147626322,2147074697,2148239314,2147203666,3091,4,13,10286
1360360021,5806,429.3900146484375000,7.4546999931335450,34.0880012512207000,115.6755981445312500,573.3483886718750000,7.4419059753417970,44.6880683898925800,50,105,89,80,76,14963,2147742656,2147426322,2148004452,2147875081,2147624960,2147075227,2148239808,2147198372,3354,4,13,39055
1360360131,5810,418.1499938964844000,7.6157999038696290,34.0861015319824200,121.5773010253906200,568.0479736328125000,7.6117038726806640,44.0346183776855500,51,102,88,80,76,14963,2147739556,2147425142,2148005385,2147873956,2147625920,2147079753,2148234578,2147202194,93,4,12,27742
1360360241,5806,407.4500122070312500,7.8343000411987305,34.0877990722656250,128.2341003417968800,561.7039184570312000,7.8146171569824220,43.3124618530273440,50,105,90,79,77,14961,2147743094,2147424228,2148004918,2147870555,2147623670,2147078985,2148235062,2147203574,3268,4,13,43920
1360360381,5807,396.8500061035156000,7.9762997627258300,34.0863990783691400,133.6732025146484400,557.2421264648438000,7.9571228027343750,42.7478294372558600,50,103,86,81,75,14961,2147737334,2147426514,2148003373,2147870400,2147621778,2147084214,2148235602,2147200000,2325,4,13,59976
1360360546,5810,384.8900146484375000,8.1596002578735350,34.0882987976074200,140.0735015869140600,551.3687744140625000,8.1444511413574220,42.0905799865722660,50,106,90,80,75,14960,2147743634,2147425152,2148001472,2147869796,2147619556,2147084150,2148227264,2147200429,1741,4,13,61405
1360360677,5808,373.4800109863281000,8.4567003250122070,34.0928001403808600,145.4736022949218800,541.5260009765625000,8.4577474594116210,41.4657402038574200,50,105,86,80,75,14958,2147738944,2147426258,2148004297,2147873682,2147623387,2147087570,2148232941,2147196388,581,4,13,8695
1360360809,5807,362.4899902343750000,8.7459001541137700,34.0956001281738300,154.9125976562500000,532.5867919921875000,8.7416095733642580,40.5450096130371100,50,105,84,80,73,14960,2147737810,2147422784,2148005403,2147871606,2147620452,2147091766,2148229312,2147199936,1863,4,13,60771
1360360954,5810,351.5499877929687500,9.1407003402709960,34.1022987365722660,161.9322052001953000,520.5089721679688000,9.1241474151611330,39.7914085388183600,50,104,87,80,74,14958,2147735881,2147426057,2148004342,2147876288,2147619373,2147089051,2148230491,2147204324,1481,4,13,30379
1360361097,5810,341.1499938964844000,9.3958997726440430,34.0997009277343750,169.7982025146484400,512.4285888671875000,9.3794670104980470,39.0660896301269500,50,106,88,82,72,14959,2147733997,2147430336,2148008000,2147873590,2147616969,2147096713,2148227108,2147202011,980,4,13,42365
1360361243,5811,328.9200134277344000,9.8191995620727540,34.1026992797851560,180.2919006347656200,498.5194091796875000,9.8178539276123050,38.0838203430175800,49,104,86,80,72,14958,2147735506,2147427126,2148012754,2147875026,2147614729,2147091803,2148225088,2147204224,1122,3,13,37334
1360361353,5805,318.2699890136719000,10.2797002792358400,34.1152992248535160,188.1705932617187500,482.1878967285156000,10.3308801651000980,37.2778892517089840,50,107,87,82,71,14956,2147733696,2147429558,2148015981,2147872146,2147612562,2147102546,2148226642,2147205220,1058,3,14,14594
1360361477,5808,307.4500122070312500,10.9013996124267580,34.1358985900878900,195.0594940185547000,464.8287963867187500,10.8742904663085940,36.5443191528320300,49,104,88,80,69,14955,2147732224,2147430409,2148023497,2147870802,2147610477,2147105709,2148232576,2147202852,347,3,13,15408
1360361609,5809,297.0899963378906000,11.4444999694824220,34.1421012878418000,200.5554962158203000,447.3028869628906000,11.4210700988769530,35.9143981933593750,49,106,86,79,70,14958,2147730331,2147433389,2148031926,2147874249,2147607872,2147112493,2148229769,2147205513,2885,3,14,38374
1360361752,5812,286.4200134277344000,11.9913997650146480,34.1883010864257800,204.8334960937500000,429.7890014648437500,11.9657602310180660,35.3736915588378900,49,104,90,80,69,14954,2147729161,2147438921,2148041115,2147872676,2147607003,2147118665,2148234404,2147208073,2836,3,14,27813
1360361886,5807,274.6099853515625000,12.3442001342773440,34.1931991577148440,208.0838012695312500,417.9731140136719000,12.3323402404785160,34.9940681457519500,49,104,87,80,70,14957,2147729856,2147449270,2148063826,2147872731,2147604114,2147129133,2148241746,2147206619,3474,3,14,41457
1360361996,5807,263.7799987792969000,12.9059000015258790,34.2296981811523440,209.3049011230468800,398.4580993652344000,12.9363098144531250,34.6170501708984400,48,104,87,80,68,14957,2147727872,2147456804,2148091300,2147872905,2147599698,2147137380,2148252315,2147209828,814,3,14,18763
1360362120,5807,253.1699981689453000,13.9637002944946290,34.3241004943847660,215.4375000000000000,364.2184143066406000,13.9921197891235350,33.7443885803222660,49,102,90,80,67,14954,2147726774,2147476763,2148130761,2147874477,2147598445,2147152292,2148266276,2147214317,3445,3,14,2400
1360362252,5809,242.4700012207031200,15.0541000366210940,34.4115982055664060,213.3314056396484400,331.9184875488281000,14.9843597412109380,33.3790588378906250,48,103,86,80,68,14951,2147728237,2147498861,2148177161,2147870902,2147591451,2147171053,2148285604,2147209572,2768,4,14,50056
1360362395,5807,231.5700073242187500,15.5837001800537110,34.4804000854492200,213.8851013183593800,312.8934936523437500,15.5674600601196290,33.0691299438476560,48,103,90,80,67,14953,2147731328,2147538395,2148256530,2147872868,2147590070,2147207332,2148318582,2147214281,87,3,14,29313
1360362529,5809,219.7500000000000000,16.2376003265380860,34.5564002990722660,214.6932983398437500,290.9142150878906000,16.2401599884033200,32.7064781188964840,49,102,87,79,66,14944,2147740909,2147600576,2148370605,2147872694,2147593197,2147243547,2148369197,2147222217,2727,3,13,35515
1360362639,5807,209.3300018310547000,17.0734996795654300,34.6713981628418000,215.7850952148437500,262.5497131347656000,17.1071891784667970,32.2428703308105500,49,103,88,80,65,14945,2147753718,2147676772,2148501421,2147874971,2147593947,2147291574,2148435894,2147227913,2081,3,14,33246
1360362763,5807,197.4700012207031200,17.5055999755859380,34.7392005920410160,220.5018005371093800,249.6658935546875000,17.5007495880126950,31.8109397888183600,49,101,84,80,65,14944,2147787392,2147802944,2148720128,2147876434,2147605650,2147383177,2148543003,2147236315,196,4,14,52131
1360362818,5808,192.5399932861328000,17.6993007659912100,34.7671012878418000,220.8144073486328000,243.3824005126953000,17.6926593780517580,31.7072792053222660,49,101,86,78,66,14943,2147809389,2147878189,2148844397,2147876150,2147611940,2147424274,2148601590,2147245686,477,3,14,45751
1360362873,5808,187.9799957275390600,17.9664993286132800,34.8055000305175800,221.0863037109375000,234.2409973144531200,17.9718303680419920,31.5662994384765620,50,101,88,79,65,14944,2147831058,2147945993,2148942445,2147876900,2147622491,2147467931,2148655579,2147247515,3111,2,15,53093
1360362928,5810,183.6100006103515600,18.1224002838134770,34.8283996582031250,221.5233001708984400,228.5767059326172000,18.1448001861572270,31.4655990600585940,49,102,87,81,64,14944,2147862107,2148021330,2149063698,2147876525,2147633929,2147519661,2148723675,2147252937,2572,2,14,37931
1360362983,5808,179.3600006103515600,18.5452003479003900,34.8821983337402340,220.7362060546875000,214.6674041748047000,18.5695800781250000,31.3155593872070300,50,102,87,81,63,14942,2147893485,2148107977,2149191680,2147881270,2147646546,2147577709,2148786166,2147260836,1922,2,14,12913
1360363038,5811,175.2599945068359400,18.7754001617431640,34.9221000671386700,221.5106048583984400,206.1065063476562500,18.8310508728027340,31.1590309143066400,50,103,88,80,65,14938,2147948854,2148240219,2149396352,2147877577,2147668708,2147663597,2148890697,2147267008,1160,2,15,40389
1360363113,5805,169.8300018310547000,19.3761997222900400,35.0065002441406250,221.4297027587890600,187.4188995361328000,19.4019908905029300,30.9104309082031250,50,106,88,80,64,14934,2148032082,2148419282,2149665737,2147879808,2147704832,2147787264,2149027913,2147276388,459,3,14,33537
1360363168,5806,166.0500030517578000,19.5725002288818360,35.0357017517089840,222.1759948730468800,181.5780029296875000,19.5805091857910160,30.7939701080322270,53,110,89,82,63,14930,2148106093,2148560877,2149865353,2147878875,2147738925,2147878509,2149131995,2147286985,3520,2,15,31479
1360363223,5805,162.1799926757812500,19.7637004852294920,35.0624008178710940,222.4577026367187500,175.2642974853515600,19.7735290527343750,30.6948699951171880,56,110,89,81,63,14927,2148198363,2148739931,2150124352,2147878656,2147781860,2147995044,2149270802,2147297115,3151,2,15,10193
1360363289,5805,157.4600067138672000,20.0872001647949220,35.1030998229980500,222.0901947021484400,165.2465972900390600,20.0799007415771500,30.5799503326416000,59,111,85,82,63,14924,2148335350,2148969115,2150447478,2147883766,2147845312,2148151561,2149447826,2147308681,2800,2,15,32854
1360363344,5809,153.5700073242187500,20.1261005401611330,35.1110992431640600,222.6819000244140600,163.0576019287109400,20.1468696594238280,30.5207290649414060,59,110,89,81,63,14918,2148454409,2149173577,2150726454,2147883044,2147898962,2148284763,2149587117,2147323821,2515,2,15,21672
1360363423,5809,147.9199981689453000,20.2938995361328120,35.1329994201660160,223.0341033935547000,158.4611968994140600,20.2875099182128900,30.4421501159667970,62,113,86,82,63,14912,2148740297,2149645650,2151394560,2147891017,2148033490,2148591716,2149936658,2147346733,2566,2,16,27157
1360363478,5808,144.1999969482422000,20.3966999053955080,35.1463012695312500,223.0422973632812500,154.9895935058593800,20.3937606811523440,30.3957405090332030,65,113,87,82,63,14913,2148957933,2149984411,2151865334,2147893010,2148135122,2148804470,2150184685,2147368640,2597,2,15,21382
1360363544,5807,139.7899932861328000,20.7266006469726560,35.1856002807617200,223.0153045654297000,144.8307952880859400,20.7048206329345700,30.2630805969238280,75,113,89,82,62,14908,2149269997,2150459456,2152514450,2147903488,2148278674,2149094107,2150499090,2147389147,2802,2,16,65364
1360363599,5809,136.4299926757812500,20.7935009002685550,35.1948013305664060,223.6943969726562500,142.4409027099609400,20.7780303955078120,30.1973896026611330,76,120,91,82,62,14900,2149543149,2150853696,2153042578,2147909220,2148408411,2149332690,2150767296,2147411172,2873,2,16,30749
1360363676,5810,131.8999938964843800,20.8061008453369140,35.1974983215332000,224.1275939941406200,141.5285034179687500,20.8059806823730470,30.1639003753662100,79,117,88,81,63,14896,2150009270,2151473545,2153844498,2147914962,2148615707,2149684845,2151133869,2147442678,3270,2,16,11462
1360363755,5805,128.2200012207031200,20.9435997009277340,35.2056007385253900,224.0980987548828000,137.4542999267578000,20.9308204650878900,30.1117897033691400,88,117,90,82,62,14890,2150395300,2151972178,2154463305,2147927003,2148789586,2149962852,2151432813,2147470902,3188,2,16,53132
1360363887,5805,125.4700012207031200,21.1128997802734380,35.2154998779296900,224.1401977539062500,132.6692047119140600,21.0774993896484380,30.0471992492675780,99,121,92,83,63,14873,2150889490,2152660452,2155334555,2147937444,2149004315,2150298121,2151780214,2147498605,2045,2,16,51669
1360364106,5807,120.6800003051757800,21.3589000701904300,35.2313003540039060,224.8368072509765600,124.0026016235351600,21.3432998657226560,29.8995094299316400,104,121,91,83,63,14872,2151148864,2152649042,2155061732,2147942976,2149116891,2150305014,2151738048,2147500269,1349,2,15,3477
1360364205,5807,116.6999969482421900,21.6077003479003900,35.2444000244140600,225.9810943603515600,115.9072036743164000,21.5917606353759770,29.7378101348876950,108,124,90,82,61,14865,2153093412,2155271442,2158398180,2147990912,2149902838,2151585298,2153106194,2147621184,3090,2,16,62589
1360364315,5808,113.2200012207031200,21.6858997344970700,35.2565994262695300,227.3890991210937500,113.1666030883789000,21.6759204864501950,29.6332702636718750,118,124,93,82,60,14854,2154270125,2156811081,2160235483,2148024265,2150386825,2152244598,2153769819,2147684324,1833,2,15,10355
1360364438,5807,108.8499984741211000,21.8131008148193360,35.2607002258300800,227.5146942138672000,106.0381011962890600,21.8949298858642580,29.5351295471191400,120,124,89,81,62,14841,2156521545,2159304548,2162947382,2148077229,2151234925,2153233408,2154737654,2147783451,2180,2,16,44301
1360364581,5809,105.8600006103515600,22.4171009063720700,35.2541999816894500,229.6539001464843800,89.9116973876953100,22.3909797668457030,29.2250709533691400,154,129,91,84,62,14788,2158715126,2161772955,2165475611,2148119734,2151991433,2153995026,2155501229,2147874989,2222,2,16,17487
1360364924,5806,101.4400024414062500,23.1585006713867200,35.3128013610839840,235.4584045410156200,65.3394317626953100,23.1486701965332030,28.6404304504394530,96,120,94,83,61,14834,2165541129,2169478738,2172913856,2148247652,2154968137,2157173376,2158374509,2148173412,1886,2,16,19309
1360365014,5810,98.7200012207031200,23.2140007019042970,35.3226013183593750,236.5111999511718800,63.2347908020019500,23.2136802673339840,28.5655899047851560,89,118,89,84,59,14841,2167188096,2170763456,2173630646,2148309723,2155977097,2157997430,2158687131,2148215478,748,2,16,17259
1360365069,5807,95.8099975585937500,23.2719001770019530,35.3278999328613300,236.9859008789062500,61.5497093200683600,23.2657394409179700,28.5226707458496100,88,119,91,82,59,14835,2172589220,2176795931,2179851492,2148454098,2158922706,2161519497,2162009014,2148521782,623,2,16,2059
1360365124,5808,92.5599975585937500,23.4360008239746100,35.3434982299804700,237.3713989257812500,56.2715797424316400,23.4288997650146500,28.4389495849609380,79,120,89,84,58,14837,2168694738,2170895625,2171956589,2148343835,2157952731,2159613110,2159578825,2148298267,707,1,16,35685
1360365179,5808,89.3199996948242200,23.5044994354248050,35.3484992980957000,238.0944976806640600,54.0291595458984400,23.4982490539550780,28.3777599334716800,79,121,91,84,59,14838,2181721536,2186434185,2188861403,2148802048,2164695460,2167701138,2167013952,2149019904,902,2,16,58145
1360365234,5806,86.0299987792968800,23.5736999511718750,35.3404998779296900,238.5267028808593800,52.2998085021972660,23.5517597198486330,28.3366603851318360,77,120,93,84,59,14844,2187775670,2192865033,2195152521,2149084361,2168743890,2172133833,2170590317,2149372498,769,2,16,38734
1360365289,5806,82.9800033569336000,23.6718006134033200,35.3343009948730500,238.9246978759765600,49.4250106811523440,23.6407299041748050,28.2826805114746100,75,120,89,83,61,14845,2180472832,2183769837,2184547977,2148900224,2166254884,2168425865,2166633700,2149016411,1289,2,16,715
1360365346,5806,80.1100006103515600,23.7604999542236330,35.3420982360839840,239.6777038574218800,45.9937591552734400,23.7469692230224600,28.2059593200683600,75,117,92,84,58,14844,2196064502,2202278637,2204358025,2149658386,2176075940,2179439387,2176096841,2149968118,1880,2,16,54926
1360365401,5809,77.5800018310546900,23.7998008728027340,35.3459014892578100,240.2613983154297000,44.5880813598632800,23.7905101776123050,28.1622295379638670,72,117,88,84,57,14846,2194340672,2199873590,2201598848,2149833600,2174942189,2177119433,2173197860,2149759259,2138,2,16,14211
1360365456,5807,75.1699981689453100,23.8076000213623050,35.3471984863281250,240.8594970703125000,44.1596794128418000,23.8037796020507800,28.1302204132080080,72,118,92,84,56,14836,2203725869,2210170852,2212158180,2150362020,2183927707,2187259373,2181755876,2150504676,2367,2,16,36074
1360365511,5808,72.8300018310546900,23.8125000000000000,35.3482017517089840,241.1291046142578000,43.8614807128906250,23.8130207061767580,28.1143608093261720,69,117,91,84,58,14839,2206538038,2213156224,2215234925,2150756982,2187662774,2190549403,2183985837,2150783478,2569,1,16,58604
1360365566,5808,70.5899963378906200,23.8236999511718750,35.3484001159668000,241.2769012451172000,43.5134315490722660,23.8237991333007800,28.1035804748535160,69,117,91,84,57,14841,2211129106,2218072722,2220142482,2151344722,2191930532,2194944539,2187172251,2151110884,2533,2,16,6993
1360365621,5807,68.4599990844726600,23.8314990997314450,35.3471984863281250,241.3959045410156200,43.3206710815429700,23.8297691345214840,28.0957603454589840,66,117,93,83,58,14834,2179443949,2179961673,2178237833,2149236443,2171826212,2171124233,2166086345,2149003648,2530,2,16,12933
1360365678,5813,66.4499969482421900,23.8388996124267580,35.3479995727539060,241.4342956542968800,42.9916992187500000,23.8399600982666000,28.0899505615234380,67,119,91,82,57,14830,2221105728,2228601709,2230512073,2152592027,2203823085,2206269961,2195209115,2151988681,2711,1,16,16609
1360365733,5810,64.6999969482421900,23.8479995727539060,35.3498001098632800,241.5464935302734400,42.6655807495117200,23.8500709533691400,28.0808792114257800,66,119,91,84,54,14831,2225230866,2233033417,2234847780,2152961764,2207915529,2210718720,2198051245,2152313206,2830,1,16,49205
1360365788,5809,63.1199989318847660,23.8507995605468750,35.3506011962890600,241.5579071044922000,42.5331001281738300,23.8541793823242200,28.0786209106445300,65,116,90,84,56,14829,2226177947,2233485101,2234503140,2153078893,2211528201,2213477641,2199788333,2152463853,2842,1,16,46916
1360365865,5807,61.1500015258789060,23.8589992523193360,35.3502998352050800,241.5321044921875000,42.2798614501953100,23.8620204925537100,28.0767192840576170,64,119,94,83,55,14830,2231719177,2239203483,2239853970,2154082724,2219241691,2220847177,2204798656,2153097920,2667,2,16,45192
1360365942,5807,59.2900009155273440,23.8628997802734380,35.3512001037597660,241.6947021484375000,42.1034202575683600,23.8674907684326170,28.0673809051513670,63,119,88,84,57,14828,2238353197,2246393892,2246937709,2154861513,2226355922,2227713490,2209332397,2153513773,2893,1,16,3622
1360366021,5805,56.7000007629394500,23.8798999786376950,35.3526992797851560,241.6826934814453000,41.6191596984863300,23.8824996948242200,28.0619297027587900,62,117,91,82,53,14829,2248374994,2256815670,2257279762,2156975533,2237366089,2238508598,2216720594,2154459904,2745,2,16,18740
1360366076,5815,54.1100006103515600,23.8917999267578120,35.3536987304687500,241.7935943603515600,41.2079696655273440,23.8952407836914060,28.0518608093261720,60,116,91,83,55,14823,2256471113,2265726317,2266599881,2158577837,2246156525,2247649462,2223221897,2155294738,2709,1,16,2397
1360366131,5810,51.3600006103515600,23.8957996368408200,35.3543014526367200,241.9257049560547000,41.0490303039550800,23.9001693725585940,28.0440692901611330,59,115,90,82,54,14834,2268111222,2277290825,2277828388,2161054884,2260907062,2261366500,2232430857,2156535003,2998,1,16,30737
1360366186,5810,48.4500007629394500,23.8976001739501950,35.3545989990234400,242.0140075683593800,40.8830299377441400,23.9053096771240230,28.0379600524902340,56,115,92,82,55,14827,2244363547,2248942198,2247188553,2158946322,2248286070,2246945810,2220331346,2155301741,3115,1,16,39168
1360366241,5806,45.4700012207031250,23.8997993469238280,35.3544006347656250,242.0039062500000000,40.9030914306640600,23.9046897888183600,28.0387706756591800,57,116,90,83,56,14828,2284772169,2294635529,2296445174,2167988507,2276121289,2274766930,2240723026,2158622656,3080,2,16,5485
1360366296,5807,42.3800010681152340,23.9109001159667970,35.3544006347656250,242.1717071533203000,40.5521812438964840,23.9155693054199220,28.0269508361816400,56,115,92,83,54,14825,2312235136,2323751158,2326599972,2174773650,2305611291,2303571830,2261285339,2161681929,3189,2,17,34489
1360366353,5812,39.0900001525878900,23.9132995605468750,35.3536987304687500,242.2113952636718800,40.3121109008789060,23.9230098724365230,28.0222702026367200,55,116,89,84,55,14827,2329847286,2341034834,2343829504,2183099474,2329572754,2325795117,2276535387,2164242304,3243,1,16,24785
1360366408,5808,35.8699989318847660,23.9151000976562500,35.3539009094238300,242.3706054687500000,40.0826683044433600,23.9301204681396500,28.0123996734619140,55,116,91,83,58,14825,2343631158,2353367890,2355488201,2190294354,2358142646,2354284662,2297222189,2168572507,3300,2,16,13926
1360366463,5809,32.5600013732910160,23.9307994842529300,35.3521995544433600,242.4853973388672000,39.6201400756835940,23.9444599151611330,28.0014400482177730,54,116,94,84,57,14827,2366374500,2377941513,2382602569,2203522560,2378569865,2372548150,2309594221,2171781988,3320,1,17,58247
1360366518,5805,29.3999996185302730,23.9603996276855470,35.3540000915527340,242.4880981445312500,38.6138496398925800,23.9756603240966800,27.9887104034423830,53,115,88,85,54,14822,2337628141,2343483200,2343255387,2198968768,2364119542,2354435419,2293133440,2169678646,2920,0,17,59180
1360366573,5807,26.2700004577636720,23.9857997894287100,35.3544006347656250,242.5155944824218800,37.6457099914550800,24.0056800842285160,27.9757099151611330,53,116,89,84,56,14825,2403631789,2416286692,2422945362,2233439460,2422433673,2411170459,2335271021,2179741650,2927,2,16,12466
1360366628,5807,23.1299991607666000,24.0531005859375000,35.3526992797851560,242.2395019531250000,35.3286399841308600,24.0775508880615230,27.9592704772949220,51,115,93,82,56,14826,2418129837,2431931940,2440761828,2251211181,2446400237,2432501796,2349117376,2183565001,2969,2,16,19463
